#timestamp,LO_Frequency,Hit 
1499320815.2,286046994.3,N
1499320835.0,286046990.4,N
1499320835.9,286046990.4,N
1499320855.8,286046990.8,N
1499320875.6,286046988.7,N
1499320895.4,286046989.4,N
1499320915.3,286046991.3,N
1499320935.1,286046991.5,N
1499320936.0,286046991.5,N
1499320955.8,286046990.1,N
1499320975.7,286046991.1,N
1499320995.5,286046990.5,N
1499321015.3,286046992.6,N
1499321035.1,286046990.8,N
1499321055.9,286046993.0,N
1499321075.7,286046992.3,N
1499321095.5,286046992.4,N
1499321115.4,286046988.9,N
1499321135.2,286046991.0,N
1499321155.0,286046992.9,N
1499321155.9,286046992.9,N
1499321175.8,286046994.7,N
1499321195.6,286046990.9,N
1499321215.4,286046990.7,N
1499321235.3,286046991.0,N
1499321255.1,286046990.9,N
1499321256.0,286046990.9,N
1499321275.8,286046991.0,N
1499321295.7,286046989.2,N
1499321315.5,286046989.0,N
1499321335.3,286046988.7,N
1499321355.2,286046990.7,N
1499321375.9,286046992.1,N
1499321395.7,286046990.2,N
1499321415.5,286046992.1,N
1499321435.4,286046992.0,N
1499321455.2,286046993.1,N
1499321475.0,286046992.0,N
1499321475.9,286046992.0,N
1499321495.8,286046994.7,N
1499321515.6,286046992.0,N
1499321535.4,286046992.1,N
1499321555.3,286046990.2,N
1499321575.1,286046988.9,N
1499321595.8,286046987.2,N
1499321615.7,286046986.9,N
1499321635.5,286046989.2,N
1499321655.3,286046989.5,N
1499321675.2,286046989.1,N
1499321695.9,286046988.3,N
1499321715.7,286046986.1,N
1499321735.6,286046986.8,N
1499321755.4,286046985.3,N
1499321775.2,286046987.1,N
1499321795.0,286046987.8,N
1499321796.0,286046987.8,N
1499321815.8,286046987.2,N
1499321835.6,286046989.0,N
1499321855.4,286046989.2,N
1499321875.3,286046986.9,N
1499321895.1,286046990.0,N
1499321915.8,286046987.6,N
1499321935.7,286046987.3,N
1499321955.5,286046985.9,N
1499321975.3,286046985.5,N
1499321995.2,286046982.4,N
1499322015.9,286046980.7,N
1499322035.7,286046983.6,N
1499322055.6,286046983.6,N
1499322075.4,286046983.3,N
1499322095.2,286046980.5,N
1499322115.0,286046980.9,N
1499322115.9,286046980.9,N
1499322135.8,286046981.4,N
1499322155.6,286046981.4,N
1499322175.4,286046981.6,N
1499322195.3,286046979.5,N
1499322215.1,286046978.2,N
1499322235.8,286046977.7,N
1499322255.7,286046981.3,N
1499322275.5,286046979.0,N
1499322295.3,286046978.9,N
1499322315.2,286046981.4,N
1499322335.9,286046981.9,N
1499322355.7,286046981.7,N
1499322375.6,286046979.2,N
1499322395.4,286046981.4,N
1499322415.2,286046979.3,N
1499322435.1,286046978.5,N
1499322436.0,286046978.5,N
1499322455.8,286046979.5,N
1499322475.6,286046979.3,N
1499322495.4,286046979.3,N
1499322515.3,286046978.9,N
1499322535.1,286046979.5,N
1499322555.8,286046979.7,N
1499322575.7,286046979.4,N
1499322595.5,286046979.8,N
1499322615.3,286046979.5,N
1499322635.2,286046977.5,N
1499322655.9,286046979.6,N
1499322675.7,286046979.3,N
1499322695.6,286046980.1,N
1499322715.4,286046980.4,N
1499322735.2,286046979.7,N
1499322755.1,286046980.4,N
1499322756.0,286046980.4,N
1499322775.8,286046979.2,N
1499322795.6,286046979.8,N
1499322815.5,286046979.0,N
1499322835.3,286046981.6,N
1499322855.1,286046981.2,N
1499322875.8,286046978.9,N
1499322895.7,286046980.1,N
1499322915.5,286046979.5,N
1499322935.3,286046977.5,N
1499322955.2,286046978.0,N
1499322975.0,286046975.7,N
1499322975.9,286046975.7,N
1499322995.7,286046977.1,N
1499323015.6,286046976.3,N
1499323035.4,286046976.7,N
1499323055.2,286046976.5,N
1499323075.1,286046977.1,N
1499323076.0,286046977.1,N
1499323095.8,286046974.6,N
1499323115.6,286046978.7,N
1499323135.5,286046976.0,N
1499323155.3,286046976.4,N
1499323175.1,286046972.9,N
1499323195.9,286046974.2,N
1499323215.7,286046974.3,N
1499323235.5,286046974.8,N
1499323255.4,286046974.9,N
1499323275.2,286046975.0,N
1499323295.0,286046973.7,N
1499323295.9,286046973.7,N
1499323315.8,286046971.0,N
1499323335.6,286046973.5,N
1499323355.4,286046970.9,N
1499323375.2,286046973.1,N
1499323395.1,286046973.9,N
1499323396.0,286046973.9,N
1499323415.8,286046972.1,N
1499323435.6,286046972.1,N
1499323455.5,286046973.9,N
1499323475.3,286046967.7,N
1499323495.1,286046972.2,N
1499323515.9,286046971.2,N
1499323535.7,286046971.1,N
1499323555.5,286046971.3,N
1499323575.4,286046971.0,N
1499323595.2,286046971.9,N
1499323615.0,286046969.3,N
1499323615.9,286046969.3,N
1499323635.8,286046968.8,N
1499323655.6,286046968.0,N
1499323675.4,286046970.7,N
1499323695.3,286046967.7,N
1499323715.1,286046966.5,N
1499323716.0,286046966.5,N
1499323735.8,286046968.3,N
1499323755.7,286046967.9,N
1499323775.5,286046970.6,N
1499323795.3,286046970.7,N
1499323815.2,286046968.0,N
1499323835.9,286046966.5,N
1499323855.7,286046968.7,N
1499323875.6,286046968.6,N
1499323895.4,286046966.4,N
1499323915.2,286046966.2,N
1499323935.0,286046965.7,N
1499323935.9,286046965.7,N
1499323955.8,286046964.1,N
1499323975.6,286046961.8,N
1499323995.4,286046963.9,N
1499324015.3,286046964.5,N
1499324035.1,286046965.9,N
1499324055.8,286046964.5,N
1499324075.7,286046969.1,N
1499324095.5,286046965.0,N
1499324115.3,286046964.9,N
1499324135.2,286046967.0,N
1499324155.9,286046962.9,N
1499324175.7,286046965.7,N
1499324195.6,286046963.4,N
1499324215.4,286046963.5,N
1499324235.2,286046965.3,N
1499324255.1,286046965.3,N
1499324256.0,286046965.3,N
1499324275.8,286046967.1,N
1499324295.6,286046966.9,N
1499324315.4,286046969.1,N
1499324335.3,286046967.5,N
1499324355.1,286046963.2,N
1499324375.8,286046963.4,N
1499324395.7,286046963.5,N
